LITUANICASAT-2

Last updated on Sat Apr 01 2023 01:03:44 GMT+0100 (British Summer Time)

1 42768U 17036D 23090.54296531 .06528681 23120-5 22452-2 0 9999 2 42768 97.1389 139.9112 0010783 259.9303 100.0773 16.25307690321713

Satellite not in orbit